| time (UTC) | temp C | wind direction | speed KPH | gust KPH | rain 1hr cm | rain 24hr cm | rain mn cm | humidity % | barometer mb |
| 20260506132613 | 9 | 81 | 1.6 | 6.4 | 0.00 | 0.00 | 0.00 | 91 | |
| 20260506132411 | 9 | 94 | 1.6 | 6.4 | 0.00 | 0.00 | 0.00 | 91 | |
| 20260506132209 | 9 | 105 | 3.2 | 0.0 | 0.00 | 0.00 | 0.00 | 91 | |
| 20260506132007 | 9 | 59 | 0.0 | 0.0 | 0.00 | 0.00 | 0.00 | 91 | |
| 20260506131805 | 9 | 59 | 0.0 | 0.0 | 0.00 | 0.00 | 0.00 | 91 | |
| 20260506131603 | 9 | 59 | 0.0 | 0.0 | 0.00 | 0.00 | 0.00 | 91 | |
| 20260506131401 | 9 | 59 | 0.0 | 0.0 | 0.00 | 0.00 | 0.00 | 91 | |
| 20260506131159 | 9 | 59 | 0.0 | 0.0 | 0.00 | 0.00 | 0.00 | 90 | |
| 20260506130957 | 9 | 59 | 0.0 | 0.0 | 0.00 | 0.00 | 0.00 | 90 | |
| 20260506130756 | 9 | 59 | 0.0 | 0.0 | 0.00 | 0.00 | 0.00 | 90 | |
| 20260506130150 | 9 | 59 | 0.0 | 0.0 | 0.00 | 0.00 | 0.00 | 91 | |
| 20260506125948 | 9 | 59 | 0.0 | 0.0 | 0.00 | 0.00 | 0.00 | 90 | |
| 20260506125746 | 9 | 59 | 0.0 | 0.0 | 0.00 | 0.00 | 0.00 | 91 | |
| 20260506125542 | 9 | 59 | 0.0 | 0.0 | 0.00 | 0.00 | 0.00 | 91 | |
| 20260506125341 | 9 | 59 | 0.0 | 0.0 | 0.00 | 0.00 | 0.00 | 91 | |
| 20260506125141 | 9 | 59 | 0.0 | 0.0 | 0.00 | 0.00 | 0.00 | 91 | |
| 20260506124736 | 9 | 59 | 0.0 | 3.2 | 0.00 | 0.00 | 0.00 | 91 | |
| 20260506124535 | 9 | 59 | 0.0 | 3.2 | 0.00 | 0.00 | 0.00 | 91 | |
| 20260506124333 | 9 | 59 | 0.0 | 3.2 | 0.00 | 0.00 | 0.00 | 91 | |
| 20260506124131 | 9 | 88 | 1.6 | 3.2 | 0.00 | 0.00 | 0.00 | 91 | |
| 20260506123929 | 9 | 63 | 0.0 | 3.2 | 0.00 | 0.00 | 0.00 | 91 | |
| 20260506123727 | 9 | 104 | 3.2 | 3.2 | 0.00 | 0.00 | 0.00 | 91 | |
| 20260506123525 | 9 | 77 | 0.0 | 3.2 | 0.00 | 0.00 | 0.00 | 91 | |
| 20260506123323 | 9 | 77 | 0.0 | 3.2 | 0.00 | 0.00 | 0.00 | 91 | |
| 20260506123121 | 9 | 77 | 0.0 | 3.2 | 0.00 | 0.00 | 0.00 | 91 | |
| 20260506122920 | 9 | 77 | 0.0 | 3.2 | 0.00 | 0.00 | 0.00 | 91 | |
| 20260506122717 | 9 | 77 | 0.0 | 0.0 | 0.00 | 0.00 | 0.00 | 91 | |
| 20260506122516 | 9 | 71 | 0.0 | 0.0 | 0.00 | 0.00 | 0.00 | 91 | |
| 20260506122314 | 9 | 71 | 0.0 | 0.0 | 0.00 | 0.00 | 0.00 | 91 | |
| 20260506122112 | 9 | 71 | 0.0 | 0.0 | 0.00 | 0.00 | 0.00 | 91 | |
| 20260506121910 | 9 | 71 | 0.0 | 0.0 | 0.00 | 0.00 | 0.00 | 91 | |
| 20260506121708 | 9 | 71 | 0.0 | 0.0 | 0.00 | 0.00 | 0.00 | 91 | |
| 20260506121506 | 9 | 71 | 0.0 | 0.0 | 0.00 | 0.00 | 0.00 | 91 | |
| 20260506121304 | 9 | 71 | 0.0 | 0.0 | 0.00 | 0.00 | 0.00 | 91 | |
| 20260506121102 | 9 | 71 | 0.0 | 0.0 | 0.00 | 0.00 | 0.00 | 91 | |
| 20260506120900 | 9 | 71 | 0.0 | 0.0 | 0.00 | 0.00 | 0.00 | 91 | |
| 20260506120657 | 9 | 71 | 0.0 | 0.0 | 0.00 | 0.00 | 0.00 | 91 | |
| 20260506120457 | 9 | 71 | 0.0 | 0.0 | 0.00 | 0.00 | 0.00 | 91 | |
| 20260506120255 | 9 | 71 | 0.0 | 0.0 | 0.00 | 0.00 | 0.00 | 91 | |
| 20260506120053 | 9 | 71 | 0.0 | 0.0 | 0.00 | 0.00 | 0.00 | 91 | |
| 20260506115851 | 9 | 71 | 0.0 | 0.0 | 0.00 | 0.00 | 0.00 | 91 | |
| 20260506115647 | 9 | 71 | 0.0 | 0.0 | 0.00 | 0.00 | 0.00 | 91 | |
| 20260506115447 | 9 | 71 | 0.0 | 0.0 | 0.00 | 0.00 | 0.00 | 91 | |
| 20260506115245 | 9 | 71 | 0.0 | 0.0 | 0.00 | 0.00 | 0.00 | 91 | |
| 20260506115043 | 10 | 71 | 0.0 | 0.0 | 0.00 | 0.00 | 0.00 | 91 | |
| 20260506114841 | 9 | 71 | 0.0 | 0.0 | 0.00 | 0.00 | 0.00 | 91 | |
| 20260506114437 | 9 | 71 | 0.0 | 0.0 | 0.00 | 0.00 | 0.00 | 91 | |
| 20260506114034 | 10 | 71 | 0.0 | 0.0 | 0.00 | 0.00 | 0.00 | 90 | |
| 20260506113628 | 10 | 71 | 0.0 | 0.0 | 0.00 | 0.00 | 0.00 | 90 | |
| 20260506113427 | 10 | 71 | 0.0 | 0.0 | 0.00 | 0.00 | 0.00 | 90 | |
| 20260506113226 | 10 | 71 | 0.0 | 0.0 | 0.00 | 0.00 | 0.00 | 90 | |
| 20260506113024 | 10 | 71 | 0.0 | 0.0 | 0.00 | 0.00 | 0.00 | 90 | |
| 20260506112822 | 10 | 71 | 0.0 | 0.0 | 0.00 | 0.00 | 0.00 | 91 | |
| 20260506112620 | 10 | 71 | 0.0 | 0.0 | 0.00 | 0.00 | 0.00 | 90 | |
| 20260506111813 | 10 | 71 | 0.0 | 3.2 | 0.00 | 0.00 | 0.00 | 91 | |
| 20260506111611 | 10 | 71 | 0.0 | 3.2 | 0.00 | 0.00 | 0.00 | 91 | |
| 20260506111207 | 10 | 71 | 0.0 | 4.8 | 0.00 | 0.00 | 0.00 | 91 | |
| 20260506111005 | 10 | 99 | 1.6 | 4.8 | 0.00 | 0.00 | 0.00 | 91 | |
| 20260506110803 | 10 | 109 | 4.8 | 4.8 | 0.00 | 0.00 | 0.00 | 91 | |
| 20260506110602 | 10 | 106 | 1.6 | 4.8 | 0.00 | 0.00 | 0.00 | 91 | |
| 20260506110158 | 10 | 102 | 3.2 | 0.0 | 0.00 | 0.00 | 0.00 | 92 | |
| 20260506105956 | 10 | 91 | 1.6 | 0.0 | 0.00 | 0.00 | 0.00 | 92 | |
| 20260506105350 | 10 | 82 | 0.0 | 0.0 | 0.00 | 0.00 | 0.00 | 92 | |
| 20260506105148 | 10 | 82 | 0.0 | 3.2 | 0.00 | 0.00 | 0.00 | 92 | |
| 20260506104742 | 10 | 95 | 1.6 | 4.8 | 0.00 | 0.00 | 0.00 | 92 | |
| 20260506104542 | 10 | 98 | 1.6 | 4.8 | 0.00 | 0.00 | 0.00 | 92 | |
| 20260506104340 | 10 | 98 | 1.6 | 4.8 | 0.00 | 0.00 | 0.00 | 92 | |
| 20260506104138 | 10 | 109 | 3.2 | 0.0 | 0.00 | 0.00 | 0.00 | 92 | |
| 20260506103937 | 10 | 70 | 0.0 | 0.0 | 0.00 | 0.00 | 0.00 | 92 | |
| 20260506103531 | 10 | 70 | 0.0 | 0.0 | 0.00 | 0.00 | 0.00 | 92 | |
| 20260506103331 | 10 | 70 | 0.0 | 0.0 | 0.00 | 0.00 | 0.00 | 92 | |
| 20260506103129 | 10 | 70 | 0.0 | 0.0 | 0.00 | 0.00 | 0.00 | 92 | |
| 20260506102927 | 10 | 70 | 0.0 | 0.0 | 0.00 | 0.00 | 0.00 | 92 | |
| 20260506102523 | 10 | 70 | 0.0 | 0.0 | 0.00 | 0.00 | 0.00 | 92 | |
| 20260506102321 | 10 | 70 | 0.0 | 3.2 | 0.00 | 0.00 | 0.00 | 92 | |
| 20260506102120 | 10 | 70 | 0.0 | 3.2 | 0.00 | 0.00 | 0.00 | 92 | |
| 20260506101918 | 10 | 70 | 0.0 | 3.2 | 0.00 | 0.00 | 0.00 | 92 | |
| 20260506101715 | 9 | 70 | 0.0 | 4.8 | 0.00 | 0.00 | 0.00 | 92 | |
| 20260506101514 | 9 | 77 | 0.0 | 4.8 | 0.00 | 0.00 | 0.00 | 92 | |
| 20260506101312 | 9 | 105 | 3.2 | 0.0 | 0.00 | 0.00 | 0.00 | 92 | |
| 20260506101110 | 9 | 98 | 1.6 | 0.0 | 0.00 | 0.00 | 0.00 | 92 | |
| 20260506100908 | 10 | 75 | 0.0 | 0.0 | 0.00 | 0.00 | 0.00 | 92 | |
| 20260506100706 | 9 | 75 | 0.0 | 0.0 | 0.00 | 0.00 | 0.00 | 92 | |
| 20260506100502 | 9 | 75 | 0.0 | 0.0 | 0.00 | 0.00 | 0.00 | 92 | |
| 20260506100302 | 9 | 75 | 0.0 | 0.0 | 0.00 | 0.00 | 0.00 | 91 | |
| 20260506095859 | 10 | 75 | 0.0 | 0.0 | 0.00 | 0.00 | 0.00 | 90 | |
| 20260506095656 | 10 | 75 | 0.0 | 0.0 | 0.00 | 0.00 | 0.00 | 90 | |
| 20260506095455 | 10 | 75 | 0.0 | 0.0 | 0.00 | 0.00 | 0.00 | 90 | |
| 20260506095253 | 10 | 75 | 0.0 | 0.0 | 0.00 | 0.00 | 0.00 | 90 | |
| 20260506095051 | 10 | 75 | 0.0 | 0.0 | 0.00 | 0.00 | 0.00 | 90 | |
| 20260506094849 | 10 | 75 | 0.0 | 0.0 | 0.00 | 0.00 | 0.00 | 90 | |
| 20260506094647 | 10 | 75 | 0.0 | 0.0 | 0.00 | 0.00 | 0.00 | 90 | |
| 20260506094445 | 10 | 75 | 0.0 | 0.0 | 0.00 | 0.00 | 0.00 | 90 | |
| 20260506094243 | 10 | 75 | 0.0 | 0.0 | 0.00 | 0.00 | 0.00 | 90 | |
| 20260506094041 | 10 | 75 | 0.0 | 0.0 | 0.00 | 0.00 | 0.00 | 90 | |
| 20260506093840 | 10 | 75 | 0.0 | 0.0 | 0.00 | 0.00 | 0.00 | 90 | |
| 20260506093638 | 10 | 75 | 0.0 | 0.0 | 0.00 | 0.00 | 0.00 | 90 | |
| 20260506093436 | 10 | 75 | 0.0 | 0.0 | 0.00 | 0.00 | 0.00 | 90 | |
| 20260506093232 | 10 | 75 | 0.0 | 0.0 | 0.00 | 0.00 | 0.00 | 90 | |
| 20260506093032 | 10 | 75 | 0.0 | 0.0 | 0.00 | 0.00 | 0.00 | 90 | |
| 20260506092626 | 10 | 75 | 0.0 | 0.0 | 0.00 | 0.00 | 0.00 | 90 | |
| 20260506092224 | 10 | 75 | 0.0 | 0.0 | 0.00 | 0.00 | 0.00 | 90 | |
| 20260506092022 | 10 | 75 | 0.0 | 0.0 | 0.00 | 0.00 | 0.00 | 90 | |
| 20260506091819 | 10 | 75 | 0.0 | 0.0 | 0.00 | 0.00 | 0.00 | 90 | |
| 20260506091617 | 10 | 75 | 0.0 | 0.0 | 0.00 | 0.00 | 0.00 | 90 | |
| 20260506091416 | 10 | 75 | 0.0 | 0.0 | 0.00 | 0.00 | 0.00 | 90 | |
| 20260506091215 | 10 | 75 | 0.0 | 0.0 | 0.00 | 0.00 | 0.00 | 90 | |
| 20260506091013 | 10 | 75 | 0.0 | 0.0 | 0.00 | 0.00 | 0.00 | 90 | |
| 20260506090811 | 10 | 75 | 0.0 | 0.0 | 0.00 | 0.00 | 0.00 | 90 | |
| 20260506090609 | 10 | 75 | 0.0 | 0.0 | 0.00 | 0.00 | 0.00 | 90 | |
| 20260506090407 | 10 | 75 | 0.0 | 0.0 | 0.00 | 0.00 | 0.00 | 90 | |
| 20260506090205 | 10 | 75 | 0.0 | 3.2 | 0.00 | 0.00 | 0.00 | 90 | |
| 20260506090003 | 10 | 75 | 0.0 | 3.2 | 0.00 | 0.00 | 0.00 | 90 | |
| 20260506085801 | 10 | 75 | 0.0 | 3.2 | 0.00 | 0.00 | 0.00 | 90 | |
| 20260506085559 | 10 | 75 | 0.0 | 3.2 | 0.00 | 0.00 | 0.00 | 90 | |
| 20260506085358 | 10 | 84 | 1.6 | 3.2 | 0.00 | 0.00 | 0.00 | 90 | |
| 20260506085156 | 10 | 75 | 0.0 | 0.0 | 0.00 | 0.00 | 0.00 | 90 | |
| 20260506084751 | 11 | 66 | 0.0 | 0.0 | 0.00 | 0.00 | 0.00 | 90 | |
| 20260506084550 | 11 | 66 | 0.0 | 0.0 | 0.00 | 0.00 | 0.00 | 90 | |
| 20260506084146 | 11 | 66 | 0.0 | 0.0 | 0.00 | 0.00 | 0.00 | 90 | |
| 20260506083944 | 11 | 66 | 0.0 | 0.0 | 0.00 | 0.00 | 0.00 | 90 | |
| 20260506083742 | 11 | 66 | 0.0 | 0.0 | 0.00 | 0.00 | 0.00 | 90 | |
| 20260506083540 | 10 | 66 | 0.0 | 0.0 | 0.00 | 0.00 | 0.00 | 90 | |
| 20260506083137 | 11 | 66 | 0.0 | 0.0 | 0.00 | 0.00 | 0.00 | 90 | |
| 20260506082934 | 11 | 66 | 0.0 | 0.0 | 0.00 | 0.00 | 0.00 | 90 | |
| 20260506082733 | 11 | 66 | 0.0 | 0.0 | 0.00 | 0.00 | 0.00 | 90 | |
| 20260506082531 | 11 | 66 | 0.0 | 0.0 | 0.00 | 0.00 | 0.00 | 90 | |
| 20260506082330 | 11 | 66 | 0.0 | 0.0 | 0.00 | 0.00 | 0.00 | 90 | |
| 20260506082127 | 11 | 66 | 0.0 | 0.0 | 0.00 | 0.00 | 0.00 | 90 | |
| 20260506081723 | 11 | 66 | 0.0 | 0.0 | 0.00 | 0.00 | 0.00 | 90 | |
| 20260506081521 | 11 | 66 | 0.0 | 0.0 | 0.00 | 0.00 | 0.00 | 89 | |
| 20260506081319 | 11 | 66 | 0.0 | 0.0 | 0.00 | 0.00 | 0.00 | 90 | |
| 20260506081118 | 11 | 66 | 0.0 | 0.0 | 0.00 | 0.00 | 0.00 | 90 | |
| 20260506080916 | 11 | 66 | 0.0 | 0.0 | 0.00 | 0.00 | 0.00 | 90 | |
| 20260506080654 | 11 | 66 | 0.0 | 0.0 | 0.00 | 0.00 | 0.00 | 90 | |
| 20260506080512 | 11 | 66 | 0.0 | 0.0 | 0.00 | 0.00 | 0.00 | 90 | |
| 20260506080310 | 11 | 66 | 0.0 | 4.8 | 0.00 | 0.00 | 0.00 | 90 | |
| 20260506080108 | 11 | 66 | 0.0 | 4.8 | 0.00 | 0.00 | 0.00 | 90 | |
| 20260506073443 | 11 | 56 | 0.0 | 0.0 | 0.00 | 0.00 | 0.00 | 91 | |
| 20260506073241 | 11 | 56 | 0.0 | 0.0 | 0.00 | 0.00 | 0.00 | 91 | |
| 20260506073039 | 11 | 56 | 0.0 | 0.0 | 0.00 | 0.00 | 0.00 | 91 | |
| 20260506072838 | 11 | 56 | 0.0 | 0.0 | 0.00 | 0.00 | 0.00 | 91 | |
| 20260506072635 | 11 | 56 | 0.0 | 0.0 | 0.00 | 0.00 | 0.00 | 91 | |
| 20260506072230 | 11 | 56 | 0.0 | 0.0 | 0.00 | 0.00 | 0.00 | 91 | |
| 20260506072030 | 11 | 56 | 0.0 | 0.0 | 0.00 | 0.00 | 0.00 | 90 | |
| 20260506071828 | 11 | 56 | 0.0 | 0.0 | 0.00 | 0.00 | 0.00 | 91 | |
| 20260506071626 | 11 | 56 | 0.0 | 0.0 | 0.00 | 0.00 | 0.00 | 91 | |
| 20260506071424 | 11 | 56 | 0.0 | 0.0 | 0.00 | 0.00 | 0.00 | 90 | |
| 20260506071222 | 11 | 56 | 0.0 | 1.6 | 0.00 | 0.00 | 0.00 | 90 | |
| 20260506071020 | 11 | 56 | 0.0 | 1.6 | 0.00 | 0.00 | 0.00 | 90 | |
| 20260506070820 | 11 | 56 | 0.0 | 3.2 | 0.00 | 0.00 | 0.00 | 90 | |
| 20260506070617 | 11 | 61 | 1.6 | 3.2 | 0.00 | 0.00 | 0.00 | 90 | |
| 20260506070415 | 11 | 63 | 0.0 | 3.2 | 0.00 | 0.00 | 0.00 | 90 | |
| 20260506070213 | 11 | 82 | 1.6 | 0.0 | 0.00 | 0.00 | 0.00 | 90 | |
| 20260506062336 | 11 | 8 | 0.0 | 0.0 | 0.00 | 0.00 | 0.00 | 89 | |
| 20260506062135 | 11 | 8 | 0.0 | 0.0 | 0.00 | 0.00 | 0.00 | 89 | |
| 20260506061933 | 11 | 8 | 0.0 | 0.0 | 0.00 | 0.00 | 0.00 | 89 | |
| 20260506061731 | 11 | 8 | 0.0 | 0.0 | 0.00 | 0.00 | 0.00 | 89 | |
| 20260506061529 | 11 | 8 | 0.0 | 0.0 | 0.00 | 0.00 | 0.00 | 89 | |
| 20260506061327 | 11 | 8 | 0.0 | 0.0 | 0.00 | 0.00 | 0.00 | 89 | |
| 20260506061125 | 11 | 8 | 0.0 | 0.0 | 0.00 | 0.00 | 0.00 | 89 | |
| 20260506060923 | 11 | 8 | 0.0 | 0.0 | 0.00 | 0.00 | 0.00 | 89 | |
| 20260506060721 | 11 | 8 | 0.0 | 0.0 | 0.00 | 0.00 | 0.00 | 89 | |
| 20260506060519 | 11 | 8 | 0.0 | 0.0 | 0.00 | 0.00 | 0.00 | 88 | |
| 20260506060115 | 11 | 8 | 0.0 | 0.0 | 0.00 | 0.00 | 0.00 | 88 | |
| 20260506051231 | 12 | 288 | 0.0 | 0.0 | 0.00 | 0.00 | 0.00 | 85 | |
| 20260506051029 | 12 | 288 | 0.0 | 0.0 | 0.00 | 0.00 | 0.00 | 84 | |
| 20260506050826 | 12 | 288 | 0.0 | 0.0 | 0.00 | 0.00 | 0.00 | 85 | |
| 20260506050624 | 12 | 288 | 0.0 | 3.2 | 0.00 | 0.00 | 0.00 | 85 | |
| 20260506050422 | 12 | 288 | 0.0 | 3.2 | 0.00 | 0.00 | 0.00 | 85 | |
| 20260506045009 | 12 | 289 | 0.0 | 1.6 | 0.00 | 0.00 | 0.00 | 82 | |
| 20260506044807 | 12 | 289 | 0.0 | 3.2 | 0.00 | 0.00 | 0.00 | 82 | |
| 20260506044605 | 12 | 289 | 0.0 | 3.2 | 0.00 | 0.00 | 0.00 | 82 | |
| 20260506044201 | 13 | 289 | 1.6 | 4.8 | 0.00 | 0.00 | 0.00 | 83 | |
| 20260506043957 | 13 | 282 | 1.6 | 4.8 | 0.00 | 0.00 | 0.00 | 82 | |
| 20260506043758 | 13 | 292 | 1.6 | 3.2 | 0.00 | 0.00 | 0.00 | 82 | |
| 20260506043354 | 13 | 293 | 1.6 | 3.2 | 0.00 | 0.00 | 0.00 | 82 | |
| 20260506043151 | 13 | 275 | 0.0 | 3.2 | 0.00 | 0.00 | 0.00 | 82 | |
| 20260506042950 | 13 | 289 | 0.0 | 3.2 | 0.00 | 0.00 | 0.00 | 82 | |
| 20260506042746 | 13 | 288 | 1.6 | 3.2 | 0.00 | 0.00 | 0.00 | 82 | |
| 20260506042546 | 13 | 286 | 1.6 | 3.2 | 0.00 | 0.00 | 0.00 | 81 | |
| 20260506042344 | 13 | 281 | 1.6 | 3.2 | 0.00 | 0.00 | 0.00 | 81 | |
| 20260506042142 | 13 | 279 | 1.6 | 0.0 | 0.00 | 0.00 | 0.00 | 81 | |
| 20260506041738 | 13 | 265 | 0.0 | 0.0 | 0.00 | 0.00 | 0.00 | 81 | |
| 20260506041536 | 13 | 265 | 0.0 | 0.0 | 0.00 | 0.00 | 0.00 | 81 | |
| 20260506041335 | 13 | 265 | 0.0 | 0.0 | 0.00 | 0.00 | 0.00 | 80 | |
| 20260506041133 | 13 | 265 | 0.0 | 0.0 | 0.00 | 0.00 | 0.00 | 80 | |
| 20260506035921 | 13 | 265 | 0.0 | 0.0 | 0.00 | 0.00 | 0.00 | 79 | |
| 20260506035720 | 13 | 265 | 0.0 | 0.0 | 0.00 | 0.00 | 0.00 | 79 | |
| 20260506035518 | 13 | 265 | 0.0 | 0.0 | 0.00 | 0.00 | 0.00 | 79 | |
| 20260506035315 | 13 | 265 | 0.0 | 0.0 | 0.00 | 0.00 | 0.00 | 79 | |
| 20260506035114 | 13 | 265 | 0.0 | 0.0 | 0.00 | 0.00 | 0.00 | 79 | |
| 20260506034912 | 14 | 265 | 0.0 | 0.0 | 0.00 | 0.00 | 0.00 | 78 | |
| 20260506034710 | 14 | 265 | 0.0 | 0.0 | 0.00 | 0.00 | 0.00 | 78 | |
| 20260506034508 | 14 | 265 | 0.0 | 0.0 | 0.00 | 0.00 | 0.00 | 77 | |
| 20260506034306 | 14 | 265 | 0.0 | 0.0 | 0.00 | 0.00 | 0.00 | 77 | |
| 20260506034104 | 14 | 265 | 0.0 | 0.0 | 0.00 | 0.00 | 0.00 | 77 | |
| 20260506033902 | 14 | 265 | 0.0 | 0.0 | 0.00 | 0.00 | 0.00 | 77 | |
| 20260506033700 | 14 | 265 | 0.0 | 0.0 | 0.00 | 0.00 | 0.00 | 76 | |
| 20260506033457 | 14 | 265 | 0.0 | 0.0 | 0.00 | 0.00 | 0.00 | 76 | |
| 20260506033256 | 15 | 265 | 0.0 | 0.0 | 0.00 | 0.00 | 0.00 | 76 | |
| 20260506033053 | 15 | 265 | 0.0 | 0.0 | 0.00 | 0.00 | 0.00 | 76 | |
| 20260506032852 | 15 | 265 | 0.0 | 0.0 | 0.00 | 0.00 | 0.00 | 76 | |
| 20260506032651 | 15 | 265 | 0.0 | 0.0 | 0.00 | 0.00 | 0.00 | 76 | |
| 20260506032449 | 15 | 265 | 0.0 | 0.0 | 0.00 | 0.00 | 0.00 | 76 | |
| 20260506032247 | 15 | 265 | 0.0 | 0.0 | 0.00 | 0.00 | 0.00 | 76 | |
| 20260506032045 | 15 | 265 | 0.0 | 0.0 | 0.00 | 0.00 | 0.00 | 76 | |
| 20260506031843 | 15 | 265 | 0.0 | 0.0 | 0.00 | 0.00 | 0.00 | 76 | |
| 20260506031641 | 15 | 265 | 0.0 | 1.6 | 0.00 | 0.00 | 0.00 | 76 | |
| 20260506031439 | 15 | 265 | 0.0 | 1.6 | 0.00 | 0.00 | 0.00 | 76 | |
| 20260506031036 | 15 | 275 | 1.6 | 1.6 | 0.00 | 0.00 | 0.00 | 76 | |
| 20260506030833 | 15 | 279 | 0.0 | 1.6 | 0.00 | 0.00 | 0.00 | 76 | |
| 20260506030631 | 15 | 270 | 0.0 | 1.6 | 0.00 | 0.00 | 0.00 | 76 | |
| 20260506030228 | 15 | 275 | 1.6 | 3.2 | 0.00 | 0.00 | 0.00 | 76 | |
| 20260506030026 | 15 | 272 | 1.6 | 3.2 | 0.00 | 0.00 | 0.00 | 75 | |
| 20260506025824 | 15 | 254 | 0.0 | 3.2 | 0.00 | 0.00 | 0.00 | 75 | |
| 20260506025622 | 15 | 261 | 1.6 | 1.6 | 0.00 | 0.00 | 0.00 | 75 | |
| 20260506025420 | 15 | 267 | 0.0 | 1.6 | 0.00 | 0.00 | 0.00 | 75 | |
| 20260506025218 | 15 | 217 | 0.0 | 0.0 | 0.00 | 0.00 | 0.00 | 75 | |
| 20260506025016 | 15 | 217 | 0.0 | 0.0 | 0.00 | 0.00 | 0.00 | 74 | |
| 20260506024815 | 15 | 217 | 0.0 | 0.0 | 0.00 | 0.00 | 0.00 | 74 | |
| 20260506024613 | 15 | 217 | 0.0 | 0.0 | 0.00 | 0.00 | 0.00 | 74 | |
| 20260506024410 | 15 | 217 | 0.0 | 0.0 | 0.00 | 0.00 | 0.00 | 73 | |
| 20260506024207 | 15 | 217 | 0.0 | 1.6 | 0.00 | 0.00 | 0.00 | 73 | |
| 20260506024007 | 15 | 217 | 0.0 | 1.6 | 0.00 | 0.00 | 0.00 | 73 | |
| 20260506023805 | 15 | 217 | 0.0 | 3.2 | 0.00 | 0.00 | 0.00 | 73 | |
| 20260506023603 | 15 | 180 | 0.0 | 3.2 | 0.00 | 0.00 | 0.00 | 73 | |
| 20260506023200 | 16 | 180 | 0.0 | 3.2 | 0.00 | 0.00 | 0.00 | 72 | |
| 20260506022957 | 16 | 264 | 0.0 | 3.2 | 0.00 | 0.00 | 0.00 | 72 | |
| 20260506022755 | 16 | 264 | 0.0 | 8.0 | 0.00 | 0.00 | 0.00 | 73 | |
| 20260506022553 | 16 | 268 | 0.0 | 8.0 | 0.00 | 0.00 | 0.00 | 72 | |
| 20260506022352 | 16 | 275 | 0.0 | 8.0 | 0.00 | 0.00 | 0.00 | 73 | |
| 20260506022150 | 16 | 279 | 1.6 | 4.8 | 0.00 | 0.00 | 0.00 | 73 | |
| 20260506021948 | 16 | 270 | 6.4 | 4.8 | 0.00 | 0.00 | 0.00 | 72 | |
| 20260506021746 | 16 | 278 | 3.2 | 4.8 | 0.00 | 0.00 | 0.00 | 72 | |
| 20260506021544 | 16 | 279 | 3.2 | 4.8 | 0.00 | 0.00 | 0.00 | 72 | |
| 20260506021342 | 16 | 274 | 0.0 | 4.8 | 0.00 | 0.00 | 0.00 | 71 | |
| 20260506021140 | 16 | 274 | 1.6 | 6.4 | 0.00 | 0.00 | 0.00 | 72 | |
| 20260506020938 | 16 | 293 | 3.2 | 6.4 | 0.00 | 0.00 | 0.00 | 72 | |
| 20260506020736 | 16 | 284 | 6.4 | 8.0 | 0.00 | 0.00 | 0.00 | 72 | |
| 20260506020535 | 16 | 279 | 1.6 | 8.0 | 0.00 | 0.00 | 0.00 | 72 | |
| 20260506020333 | 16 | 258 | 0.0 | 8.0 | 0.00 | 0.00 | 0.00 | 71 | |
| 20260506020131 | 16 | 288 | 4.8 | 9.7 | 0.00 | 0.00 | 0.00 | 72 | |
| 20260506015929 | 16 | 293 | 4.8 | 9.7 | 0.00 | 0.00 | 0.00 | 71 | |
| 20260506015727 | 16 | 288 | 4.8 | 8.0 | 0.00 | 0.00 | 0.00 | 71 | |
| 20260506015525 | 16 | 284 | 4.8 | 8.0 | 0.00 | 0.00 | 0.00 | 72 | |
| 20260506015323 | 16 | 271 | 4.8 | 8.0 | 0.00 | 0.00 | 0.00 | 72 | |
| 20260506015121 | 16 | 241 | 0.0 | 8.0 | 0.00 | 0.00 | 0.00 | 72 | |
| 20260506014919 | 16 | 219 | 0.0 | 8.0 | 0.00 | 0.00 | 0.00 | 72 | |
| 20260506014716 | 16 | 258 | 3.2 | 9.7 | 0.00 | 0.00 | 0.00 | 72 | |
| 20260506014314 | 16 | 293 | 4.8 | 12.9 | 0.00 | 0.00 | 0.00 | 71 | |
| 20260506014112 | 16 | 300 | 1.6 | 12.9 | 0.00 | 0.00 | 0.00 | 71 | |
| 20260506013910 | 16 | 296 | 1.6 | 12.9 | 0.00 | 0.00 | 0.00 | 70 | |
| 20260506013506 | 16 | 199 | 0.0 | 11.3 | 0.00 | 0.00 | 0.00 | 70 | |
| 20260506013302 | 17 | 191 | 0.0 | 8.0 | 0.00 | 0.00 | 0.00 | 70 | |
| 20260506012900 | 17 | 267 | 0.0 | 8.0 | 0.00 | 0.00 | 0.00 | 69 | |
| 20260506012658 | 17 | 278 | 1.6 | 11.3 | 0.00 | 0.00 | 0.00 | 69 | |
| 20260506012456 | 17 | 229 | 0.0 | 11.3 | 0.00 | 0.00 | 0.00 | 69 | |
| 20260506012254 | 17 | 299 | 1.6 | 11.3 | 0.00 | 0.00 | 0.00 | 69 | |
| 20260506012052 | 17 | 267 | 0.0 | 11.3 | 0.00 | 0.00 | 0.00 | 69 | |
| 20260506011850 | 17 | 230 | 4.8 | 11.3 | 0.00 | 0.00 | 0.00 | 69 | |
| 20260506011447 | 17 | 267 | 9.7 | 12.9 | 0.00 | 0.00 | 0.00 | 68 | |
| 20260506011245 | 17 | 262 | 8.0 | 12.9 | 0.00 | 0.00 | 0.00 | 68 | |
| 20260506011043 | 17 | 270 | 3.2 | 12.9 | 0.00 | 0.00 | 0.00 | 68 | |
| 20260506010841 | 17 | 213 | 0.0 | 12.9 | 0.00 | 0.00 | 0.00 | 68 | |
| 20260506010639 | 17 | 240 | 6.4 | 12.9 | 0.00 | 0.00 | 0.00 | 68 | |
| 20260506010437 | 17 | 241 | 1.6 | 12.9 | 0.00 | 0.00 | 0.00 | 69 | |
| 20260506010235 | 17 | 278 | 3.2 | 11.3 | 0.00 | 0.00 | 0.00 | 69 | |
| 20260506010033 | 17 | 268 | 8.0 | 11.3 | 0.00 | 0.00 | 0.00 | 69 | |
| 20260506005831 | 17 | 288 | 8.0 | 11.3 | 0.00 | 0.00 | 0.00 | 69 | |
| 20260506005629 | 17 | 260 | 6.4 | 16.1 | 0.00 | 0.00 | 0.00 | 68 | |
| 20260506005427 | 17 | 300 | 4.8 | 16.1 | 0.00 | 0.00 | 0.00 | 69 | |
| 20260506005226 | 17 | 270 | 9.7 | 20.9 | 0.00 | 0.00 | 0.00 | 68 | |
| 20260506005024 | 17 | 285 | 9.7 | 20.9 | 0.00 | 0.00 | 0.00 | 67 | |
| 20260506004822 | 17 | 254 | 16.1 | 17.7 | 0.00 | 0.00 | 0.00 | 66 | |
| 20260506004416 | 17 | 265 | 1.6 | 17.7 | 0.00 | 0.00 | 0.00 | 65 | |
| 20260506004215 | 17 | 274 | 3.2 | 19.3 | 0.00 | 0.00 | 0.00 | 65 | |
| 20260506004014 | 17 | 255 | 14.5 | 19.3 | 0.00 | 0.00 | 0.00 | 63 | |
| 20260506003811 | 17 | 239 | 12.9 | 16.1 | 0.00 | 0.00 | 0.00 | 63 | |
| 20260506003611 | 18 | 278 | 3.2 | 16.1 | 0.00 | 0.00 | 0.00 | 63 | |
| 20260506003207 | 17 | 247 | 6.4 | 20.9 | 0.00 | 0.00 | 0.00 | 65 | |
| 20260506003003 | 17 | 278 | 12.9 | 20.9 | 0.00 | 0.00 | 0.00 | 65 | |
| 20260506002803 | 17 | 258 | 17.7 | 24.1 | 0.00 | 0.00 | 0.00 | 63 | |
| 20260506002601 | 18 | 258 | 9.7 | 24.1 | 0.00 | 0.00 | 0.00 | 62 | |
| 20260506002357 | 18 | 277 | 12.9 | 24.1 | 0.00 | 0.00 | 0.00 | 61 | |
| 20260506002157 | 18 | 271 | 14.5 | 17.7 | 0.00 | 0.00 | 0.00 | 61 | |
| 20260506001954 | 18 | 227 | 4.8 | 17.7 | 0.00 | 0.00 | 0.00 | 61 | |
| 20260506001753 | 18 | 277 | 6.4 | 17.7 | 0.00 | 0.00 | 0.00 | 61 | |
| 20260506001551 | 18 | 254 | 1.6 | 17.7 | 0.00 | 0.00 | 0.00 | 62 | |
| 20260506001350 | 18 | 275 | 4.8 | 17.7 | 0.00 | 0.00 | 0.00 | 62 | |
| 20260506001148 | 18 | 271 | 8.0 | 16.1 | 0.00 | 0.00 | 0.00 | 63 | |
| 20260506000946 | 18 | 296 | 3.2 | 16.1 | 0.00 | 0.00 | 0.00 | 63 | |
| 20260506000744 | 17 | 267 | 8.0 | 19.3 | 0.00 | 0.00 | 0.00 | 63 | |
| 20260506000542 | 17 | 281 | 1.6 | 19.3 | 0.00 | 0.00 | 0.00 | 62 | |
| 20260506000340 | 17 | 260 | 11.3 | 19.3 | 0.00 | 0.00 | 0.00 | 62 | |
| 20260506000139 | 17 | 237 | 3.2 | 14.5 | 0.00 | 0.00 | 0.00 | 61 | |
| 20260505235936 | 18 | 277 | 3.2 | 14.5 | 0.00 | 0.00 | 0.00 | 61 | |
| 20260505235531 | 18 | 264 | 9.7 | 12.9 | 0.00 | 0.00 | 0.00 | 60 | |
| 20260505235331 | 18 | 156 | 0.0 | 12.9 | 0.00 | 0.00 | 0.00 | 60 | |
| 20260505234927 | 18 | 258 | 11.3 | 19.3 | 0.00 | 0.00 | 0.00 | 59 | |
| 20260505234725 | 18 | 277 | 4.8 | 17.7 | 0.00 | 0.00 | 0.00 | 58 | |
| 20260505234523 | 18 | 271 | 14.5 | 17.7 | 0.00 | 0.00 | 0.00 | 58 | |
| 20260505234117 | 18 | 257 | 11.3 | 17.7 | 0.00 | 0.00 | 0.00 | 58 | |
| 20260505233916 | 18 | 270 | 1.6 | 17.7 | 0.00 | 0.00 | 0.00 | 58 | |
| 20260505233715 | 18 | 258 | 14.5 | 17.7 | 0.00 | 0.00 | 0.00 | 58 | |
| 20260505233513 | 18 | 277 | 9.7 | 17.7 | 0.00 | 0.00 | 0.00 | 58 | |
| 20260505233310 | 18 | 264 | 9.7 | 19.3 | 0.00 | 0.00 | 0.00 | 58 | |
| 20260505233110 | 18 | 258 | 11.3 | 19.3 | 0.00 | 0.00 | 0.00 | 58 | |
| 20260505232305 | 18 | 258 | 9.7 | 24.1 | 0.00 | 0.00 | 0.00 | 56 | |
| 20260505232101 | 18 | 260 | 9.7 | 24.1 | 0.00 | 0.00 | 0.00 | 55 | |
| 20260505231858 | 18 | 288 | 3.2 | 24.1 | 0.00 | 0.00 | 0.00 | 55 | |
| 20260505231657 | 19 | 268 | 12.9 | 14.5 | 0.00 | 0.00 | 0.00 | 55 | |
| 20260505231455 | 18 | 281 | 3.2 | 14.5 | 0.00 | 0.00 | 0.00 | 56 | |
| 20260505231251 | 18 | 257 | 9.7 | 12.9 | 0.00 | 0.00 | 0.00 | 57 | |
| 20260505231051 | 18 | 268 | 12.9 | 12.9 | 0.00 | 0.00 | 0.00 | 58 | |
| 20260505230849 | 18 | 163 | 3.2 | 12.9 | 0.00 | 0.00 | 0.00 | 57 | |
| 20260505230646 | 18 | 251 | 0.0 | 20.9 | 0.00 | 0.00 | 0.00 | 56 | |
| 20260505230445 | 18 | 296 | 0.0 | 20.9 | 0.00 | 0.00 | 0.00 | 56 | |
| 20260505230243 | 18 | 182 | 0.0 | 25.7 | 0.00 | 0.00 | 0.00 | 57 | |
| 20260505225839 | 18 | 244 | 12.9 | 25.7 | 0.00 | 0.00 | 0.00 | 56 | |
| 20260505225436 | 19 | 278 | 1.6 | 16.1 | 0.00 | 0.00 | 0.00 | 54 | |
| 20260505225234 | 19 | 254 | 14.5 | 17.7 | 0.00 | 0.00 | 0.00 | 55 | |
| 20260505225032 | 18 | 277 | 6.4 | 17.7 | 0.00 | 0.00 | 0.00 | 55 | |
| 20260505224830 | 18 | 196 | 1.6 | 17.7 | 0.00 | 0.00 | 0.00 | 56 | |
| 20260505224628 | 18 | 244 | 8.0 | 29.0 | 0.00 | 0.00 | 0.00 | 56 | |
| 20260505224426 | 18 | 324 | 6.4 | 29.0 | 0.00 | 0.00 | 0.00 | 56 | |
| 20260505224224 | 18 | 262 | 12.9 | 20.9 | 0.00 | 0.00 | 0.00 | 55 | |
| 20260505224022 | 18 | 220 | 9.7 | 20.9 | 0.00 | 0.00 | 0.00 | 54 | |
| 20260505223818 | 19 | 281 | 11.3 | 22.5 | 0.00 | 0.00 | 0.00 | 54 | |
| 20260505223617 | 19 | 196 | 11.3 | 22.5 | 0.00 | 0.00 | 0.00 | 52 | |
| 20260505223416 | 20 | 279 | 4.8 | 22.5 | 0.00 | 0.00 | 0.00 | 54 | |
| 20260505223215 | 19 | 281 | 12.9 | 24.1 | 0.00 | 0.00 | 0.00 | 53 | |
| 20260505223011 | 20 | 264 | 8.0 | 24.1 | 0.00 | 0.00 | 0.00 | 53 | |
| 20260505222811 | 19 | 255 | 8.0 | 24.1 | 0.00 | 0.00 | 0.00 | 53 | |
| 20260505222609 | 20 | 250 | 9.7 | 24.1 | 0.00 | 0.00 | 0.00 | 53 | |
| 20260505222407 | 20 | 261 | 12.9 | 24.1 | 0.00 | 0.00 | 0.00 | 55 | |
| 20260505222205 | 19 | 271 | 4.8 | 22.5 | 0.00 | 0.00 | 0.00 | 55 | |
| 20260505222001 | 19 | 257 | 16.1 | 22.5 | 0.00 | 0.00 | 0.00 | 53 | |
| 20260505221801 | 20 | 277 | 22.5 | 22.5 | 0.00 | 0.00 | 0.00 | 53 | |
| 20260505221600 | 20 | 160 | 4.8 | 22.5 | 0.00 | 0.00 | 0.00 | 54 | |
| 20260505221358 | 20 | 274 | 8.0 | 22.5 | 0.00 | 0.00 | 0.00 | 54 | |
| 20260505221154 | 19 | 258 | 3.2 | 22.5 | 0.00 | 0.00 | 0.00 | 55 | |
| 20260505220953 | 19 | 237 | 9.7 | 22.5 | 0.00 | 0.00 | 0.00 | 54 | |
| 20260505220752 | 19 | 270 | 14.5 | 22.5 | 0.00 | 0.00 | 0.00 | 53 | |
| 20260505220550 | 20 | 264 | 4.8 | 22.5 | 0.00 | 0.00 | 0.00 | 54 | |
| 20260505220146 | 19 | 203 | 4.8 | 25.7 | 0.00 | 0.00 | 0.00 | 54 | |
| 20260505215944 | 19 | 270 | 16.1 | 25.7 | 0.00 | 0.00 | 0.00 | 53 | |
| 20260505215742 | 19 | 268 | 11.3 | 27.4 | 0.00 | 0.00 | 0.00 | 54 | |
| 20260505215540 | 19 | 253 | 17.7 | 27.4 | 0.00 | 0.00 | 0.00 | 55 | |
| 20260505215339 | 18 | 254 | 11.3 | 27.4 | 0.00 | 0.00 | 0.00 | 55 | |
| 20260505215136 | 19 | 277 | 8.0 | 22.5 | 0.00 | 0.00 | 0.00 | 54 | |
| 20260505214935 | 19 | 250 | 14.5 | 22.5 | 0.00 | 0.00 | 0.00 | 53 | |
| 20260505214733 | 20 | 258 | 19.3 | 17.7 | 0.00 | 0.00 | 0.00 | 50 | |
| 20260505214329 | 20 | 142 | 3.2 | 17.7 | 0.00 | 0.00 | 0.00 | 49 | |
| 20260505214127 | 20 | 247 | 12.9 | 22.5 | 0.00 | 0.00 | 0.00 | 49 | |
| 20260505213925 | 21 | 92 | 0.0 | 22.5 | 0.00 | 0.00 | 0.00 | 48 | |
| 20260505213723 | 21 | 215 | 16.1 | 19.3 | 0.00 | 0.00 | 0.00 | 48 | |
| 20260505213521 | 21 | 244 | 3.2 | 19.3 | 0.00 | 0.00 | 0.00 | 45 | |
| 20260505213317 | 21 | 247 | 8.0 | 29.0 | 0.00 | 0.00 | 0.00 | 47 | |
| 20260505213117 | 20 | 258 | 11.3 | 29.0 | 0.00 | 0.00 | 0.00 | 48 | |
| 20260505212915 | 20 | 244 | 4.8 | 29.0 | 0.00 | 0.00 | 0.00 | 47 | |
| 20260505212714 | 20 | 279 | 8.0 | 22.5 | 0.00 | 0.00 | 0.00 | 48 | |
| 20260505212511 | 20 | 237 | 11.3 | 22.5 | 0.00 | 0.00 | 0.00 | 49 | |
| 20260505212309 | 20 | 274 | 17.7 | 16.1 | 0.00 | 0.00 | 0.00 | 47 | |
| 20260505212107 | 20 | 233 | 0.0 | 16.1 | 0.00 | 0.00 | 0.00 | 48 | |
| 20260505211704 | 20 | 275 | 3.2 | 20.9 | 0.00 | 0.00 | 0.00 | 51 | |
| 20260505211502 | 19 | 296 | 4.8 | 20.9 | 0.00 | 0.00 | 0.00 | 50 | |
| 20260505211300 | 19 | 331 | 3.2 | 19.3 | 0.00 | 0.00 | 0.00 | 53 | |
| 20260505211058 | 18 | 267 | 14.5 | 19.3 | 0.00 | 0.00 | 0.00 | 54 | |
| 20260505210856 | 18 | 299 | 6.4 | 19.3 | 0.00 | 0.00 | 0.00 | 53 | |
| 20260505210654 | 18 | 268 | 11.3 | 19.3 | 0.00 | 0.00 | 0.00 | 54 | |
| 20260505210452 | 18 | 232 | 12.9 | 19.3 | 0.00 | 0.00 | 0.00 | 54 | |
| 20260505210250 | 18 | 253 | 9.7 | 17.7 | 0.00 | 0.00 | 0.00 | 55 | |
| 20260505205846 | 18 | 258 | 8.0 | 17.7 | 0.00 | 0.00 | 0.00 | 54 | |
| 20260505205643 | 18 | 275 | 9.7 | 14.5 | 0.00 | 0.00 | 0.00 | 55 | |
| 20260505205443 | 18 | 225 | 1.6 | 14.5 | 0.00 | 0.00 | 0.00 | 54 | |
| 20260505205241 | 18 | 279 | 4.8 | 17.7 | 0.00 | 0.00 | 0.00 | 56 | |
| 20260505205039 | 18 | 281 | 4.8 | 17.7 | 0.00 | 0.00 | 0.00 | 56 | |
| 20260505204837 | 18 | 288 | 11.3 | 17.7 | 0.00 | 0.00 | 0.00 | 56 | |
| 20260505204634 | 18 | 257 | 11.3 | 29.0 | 0.00 | 0.00 | 0.00 | 56 | |
| 20260505204431 | 18 | 147 | 0.0 | 29.0 | 0.00 | 0.00 | 0.00 | 57 | |
| 20260505204029 | 18 | 264 | 16.1 | 20.9 | 0.00 | 0.00 | 0.00 | 57 | |
| 20260505203827 | 18 | 254 | 12.9 | 20.9 | 0.00 | 0.00 | 0.00 | 57 | |
| 20260505203423 | 18 | 258 | 14.5 | 17.7 | 0.00 | 0.00 | 0.00 | 56 | |
| 20260505203222 | 18 | 264 | 9.7 | 16.1 | 0.00 | 0.00 | 0.00 | 56 | |
| 20260505203020 | 18 | 243 | 0.0 | 16.1 | 0.00 | 0.00 | 0.00 | 56 | |
| 20260505202816 | 18 | 236 | 4.8 | 22.5 | 0.00 | 0.00 | 0.00 | 56 | |
| 20260505202616 | 18 | 267 | 3.2 | 22.5 | 0.00 | 0.00 | 0.00 | 56 | |
| 20260505202414 | 18 | 262 | 9.7 | 22.5 | 0.00 | 0.00 | 0.00 | 57 | |
| 20260505202212 | 18 | 264 | 12.9 | 24.1 | 0.00 | 0.00 | 0.00 | 57 | |
| 20260505201808 | 18 | 265 | 16.1 | 24.1 | 0.00 | 0.00 | 0.00 | 56 | |
| 20260505201606 | 18 | 270 | 11.3 | 24.1 | 0.00 | 0.00 | 0.00 | 56 | |
| 20260505200959 | 18 | 262 | 19.3 | 22.5 | 0.00 | 0.00 | 0.00 | 58 | |
| 20260505200557 | 18 | 243 | 9.7 | 17.7 | 0.00 | 0.00 | 0.00 | 58 | |
| 20260505195949 | 18 | 289 | 8.0 | 17.7 | 0.00 | 0.00 | 0.00 | 56 | |
| 20260505195749 | 18 | 292 | 9.7 | 19.3 | 0.00 | 0.00 | 0.00 | 56 | |
| 20260505195548 | 18 | 278 | 11.3 | 19.3 | 0.00 | 0.00 | 0.00 | 56 | |
| 20260505195345 | 18 | 255 | 11.3 | 19.3 | 0.00 | 0.00 | 0.00 | 55 | |
| 20260505195148 | 18 | 262 | 12.9 | 22.5 | 0.00 | 0.00 | 0.00 | 56 | |
| 20260505194740 | 18 | 279 | 14.5 | 25.7 | 0.00 | 0.00 | 0.00 | 56 | |
| 20260505194538 | 18 | 309 | 6.4 | 25.7 | 0.00 | 0.00 | 0.00 | 55 | |
| 20260505194336 | 18 | 270 | 14.5 | 25.7 | 0.00 | 0.00 | 0.00 | 54 | |
| 20260505194134 | 18 | 270 | 11.3 | 24.1 | 0.00 | 0.00 | 0.00 | 55 | |
| 20260505193933 | 18 | 271 | 14.5 | 24.1 | 0.00 | 0.00 | 0.00 | 54 | |
| 20260505193731 | 19 | 255 | 14.5 | 24.1 | 0.00 | 0.00 | 0.00 | 54 | |
| 20260505193529 | 19 | 271 | 12.9 | 24.1 | 0.00 | 0.00 | 0.00 | 55 | |
| 20260505193327 | 18 | 270 | 11.3 | 24.1 | 0.00 | 0.00 | 0.00 | 56 | |
| 20260505193125 | 18 | 260 | 14.5 | 20.9 | 0.00 | 0.00 | 0.00 | 58 | |
| 20260505192519 | 18 | 254 | 17.7 | 22.5 | 0.00 | 0.00 | 0.00 | 56 | |
| 20260505192317 | 18 | 267 | 14.5 | 17.7 | 0.00 | 0.00 | 0.00 | 55 | |
| 20260505192115 | 18 | 277 | 16.1 | 17.7 | 0.00 | 0.00 | 0.00 | 56 | |
| 20260505191913 | 18 | 274 | 12.9 | 17.7 | 0.00 | 0.00 | 0.00 | 56 | |
| 20260505191712 | 18 | 261 | 11.3 | 19.3 | 0.00 | 0.00 | 0.00 | 56 | |
| 20260505191308 | 18 | 243 | 12.9 | 17.7 | 0.00 | 0.00 | 0.00 | 57 | |
| 20260505191105 | 18 | 268 | 11.3 | 17.7 | 0.00 | 0.00 | 0.00 | 57 | |
| 20260505190903 | 17 | 296 | 9.7 | 17.7 | 0.00 | 0.00 | 0.00 | 56 | |
| 20260505190702 | 18 | 296 | 11.3 | 19.3 | 0.00 | 0.00 | 0.00 | 55 | |
| 20260505190458 | 18 | 267 | 12.9 | 19.3 | 0.00 | 0.00 | 0.00 | 54 | |
| 20260505190257 | 18 | 272 | 11.3 | 16.1 | 0.00 | 0.00 | 0.00 | 53 | |
| 20260505190056 | 18 | 264 | 17.7 | 16.1 | 0.00 | 0.00 | 0.00 | 54 | |
| 20260505185854 | 18 | 268 | 8.0 | 16.1 | 0.00 | 0.00 | 0.00 | 54 | |
| 20260505185652 | 18 | 277 | 11.3 | 20.9 | 0.00 | 0.00 | 0.00 | 55 | |
| 20260505185450 | 18 | 275 | 9.7 | 20.9 | 0.00 | 0.00 | 0.00 | 55 | |
| 20260505185248 | 18 | 268 | 9.7 | 20.9 | 0.00 | 0.00 | 0.00 | 55 | |
| 20260505185047 | 18 | 292 | 12.9 | 20.9 | 0.00 | 0.00 | 0.00 | 55 | |
| 20260505184642 | 18 | 282 | 12.9 | 16.1 | 0.00 | 0.00 | 0.00 | 53 | |
| 20260505184441 | 18 | 260 | 16.1 | 16.1 | 0.00 | 0.00 | 0.00 | 53 | |
| 20260505184239 | 18 | 261 | 12.9 | 20.9 | 0.00 | 0.00 | 0.00 | 55 | |
| 20260505184037 | 18 | 232 | 4.8 | 20.9 | 0.00 | 0.00 | 0.00 | 53 | |
| 20260505183835 | 18 | 316 | 3.2 | 20.9 | 0.00 | 0.00 | 0.00 | 51 | |
| 20260505183633 | 19 | 264 | 14.5 | 20.9 | 0.00 | 0.00 | 0.00 | 51 | |
| 20260505183432 | 18 | 264 | 12.9 | 20.9 | 0.00 | 0.00 | 0.00 | 53 | |
| 20260505183230 | 18 | 275 | 11.3 | 17.7 | 0.00 | 0.00 | 0.00 | 53 | |
| 20260505182826 | 18 | 279 | 3.2 | 17.7 | 0.00 | 0.00 | 0.00 | 52 | |
| 20260505182624 | 18 | 258 | 14.5 | 16.1 | 0.00 | 0.00 | 0.00 | 53 | |
| 20260505182422 | 18 | 261 | 11.3 | 16.1 | 0.00 | 0.00 | 0.00 | 56 | |
| 20260505182220 | 18 | 277 | 12.9 | 9.7 | 0.00 | 0.00 | 0.00 | 54 | |
| 20260505182018 | 18 | 296 | 11.3 | 9.7 | 0.00 | 0.00 | 0.00 | 55 | |
| 20260505181817 | 18 | 312 | 6.4 | 16.1 | 0.00 | 0.00 | 0.00 | 56 | |
| 20260505181413 | 18 | 278 | 0.0 | 16.1 | 0.00 | 0.00 | 0.00 | 56 | |
| 20260505181211 | 18 | 260 | 3.2 | 29.0 | 0.00 | 0.00 | 0.00 | 56 | |
| 20260505181009 | 17 | 275 | 6.4 | 29.0 | 0.00 | 0.00 | 0.00 | 57 | |
| 20260505180807 | 18 | 292 | 8.0 | 12.9 | 0.00 | 0.00 | 0.00 | 56 | |
| 20260505180603 | 18 | 288 | 4.8 | 12.9 | 0.00 | 0.00 | 0.00 | 56 | |
| 20260505180403 | 18 | 284 | 14.5 | 12.9 | 0.00 | 0.00 | 0.00 | 56 | |
| 20260505180201 | 18 | 320 | 4.8 | 9.7 | 0.00 | 0.00 | 0.00 | 55 | |
| 20260505175959 | 18 | 275 | 9.7 | 9.7 | 0.00 | 0.00 | 0.00 | 55 | |
| 20260505175757 | 18 | 191 | 1.6 | 16.1 | 0.00 | 0.00 | 0.00 | 56 | |
| 20260505175555 | 18 | 255 | 4.8 | 16.1 | 0.00 | 0.00 | 0.00 | 56 | |
| 20260505175354 | 18 | 229 | 3.2 | 16.1 | 0.00 | 0.00 | 0.00 | 56 | |
| 20260505174950 | 18 | 229 | 6.4 | 11.3 | 0.00 | 0.00 | 0.00 | 53 | |
| 20260505174748 | 18 | 165 | 4.8 | 11.3 | 0.00 | 0.00 | 0.00 | 53 | |
| 20260505174546 | 18 | 187 | 6.4 | 11.3 | 0.00 | 0.00 | 0.00 | 55 | |
| 20260505174142 | 18 | 164 | 4.8 | 12.9 | 0.00 | 0.00 | 0.00 | 59 | |
| 20260505173940 | 17 | 188 | 3.2 | 12.9 | 0.00 | 0.00 | 0.00 | 58 | |
| 20260505173738 | 17 | 213 | 3.2 | 11.3 | 0.00 | 0.00 | 0.00 | 58 | |
| 20260505173536 | 18 | 219 | 6.4 | 11.3 | 0.00 | 0.00 | 0.00 | 57 | |
| 20260505173133 | 18 | 70 | 0.0 | 12.9 | 0.00 | 0.00 | 0.00 | 60 | |
| 20260505172527 | 17 | 156 | 4.8 | 8.0 | 0.00 | 0.00 | 0.00 | 59 | |
| 20260505172324 | 17 | 229 | 3.2 | 8.0 | 0.00 | 0.00 | 0.00 | 60 | |
| 20260505171921 | 17 | 73 | 0.0 | 1.6 | 0.00 | 0.00 | 0.00 | 61 | |
| 20260505171719 | 17 | 73 | 0.0 | 9.7 | 0.00 | 0.00 | 0.00 | 62 | |
| 20260505171517 | 16 | 73 | 0.0 | 9.7 | 0.00 | 0.00 | 0.00 | 63 | |
| 20260505171114 | 16 | 208 | 0.0 | 14.5 | 0.00 | 0.00 | 0.00 | 63 | |
| 20260505170912 | 16 | 212 | 0.0 | 14.5 | 0.00 | 0.00 | 0.00 | 63 | |
| 20260505170710 | 16 | 265 | 0.0 | 9.7 | 0.00 | 0.00 | 0.00 | 63 | |
| 20260505170507 | 16 | 180 | 0.0 | 9.7 | 0.00 | 0.00 | 0.00 | 63 | |
| 20260505170306 | 16 | 257 | 3.2 | 11.3 | 0.00 | 0.00 | 0.00 | 64 | |
| 20260505170104 | 16 | 295 | 9.7 | 11.3 | 0.00 | 0.00 | 0.00 | 63 | |
| 20260505165902 | 16 | 302 | 8.0 | 11.3 | 0.00 | 0.00 | 0.00 | 64 | |
| 20260505165456 | 16 | 298 | 6.4 | 12.9 | 0.00 | 0.00 | 0.00 | 66 | |
| 20260505165256 | 15 | 274 | 6.4 | 11.3 | 0.00 | 0.00 | 0.00 | 67 | |
| 20260505165054 | 15 | 272 | 0.0 | 11.3 | 0.00 | 0.00 | 0.00 | 67 | |
| 20260505164852 | 15 | 277 | 9.7 | 11.3 | 0.00 | 0.00 | 0.00 | 67 | |
| 20260505164650 | 15 | 282 | 0.0 | 12.9 | 0.00 | 0.00 | 0.00 | 67 | |
| 20260505164447 | 15 | 310 | 8.0 | 12.9 | 0.00 | 0.00 | 0.00 | 67 | |
| 20260505164247 | 15 | 282 | 4.8 | 14.5 | 0.00 | 0.00 | 0.00 | 68 | |
| 20260505163843 | 15 | 267 | 9.7 | 14.5 | 0.00 | 0.00 | 0.00 | 68 | |
| 20260505163641 | 15 | 277 | 4.8 | 11.3 | 0.00 | 0.00 | 0.00 | 69 | |
| 20260505163437 | 15 | 254 | 3.2 | 11.3 | 0.00 | 0.00 | 0.00 | 69 | |
| 20260505163238 | 14 | 291 | 8.0 | 12.9 | 0.00 | 0.00 | 0.00 | 67 | |
| 20260505163035 | 15 | 302 | 6.4 | 12.9 | 0.00 | 0.00 | 0.00 | 67 | |
| 20260505162631 | 15 | 271 | 6.4 | 6.4 | 0.00 | 0.00 | 0.00 | 68 | |
| 20260505162429 | 15 | 334 | 4.8 | 6.4 | 0.00 | 0.00 | 0.00 | 70 | |
| 20260505162227 | 15 | 272 | 0.0 | 11.3 | 0.00 | 0.00 | 0.00 | 70 | |
| 20260505162026 | 15 | 298 | 3.2 | 11.3 | 0.00 | 0.00 | 0.00 | 70 | |
| 20260505161824 | 15 | 313 | 1.6 | 11.3 | 0.00 | 0.00 | 0.00 | 69 | |
| 20260505161622 | 15 | 261 | 1.6 | 8.0 | 0.00 | 0.00 | 0.00 | 69 | |
| 20260505161218 | 15 | 255 | 1.6 | 3.2 | 0.00 | 0.00 | 0.00 | 72 | |
| 20260505160814 | 15 | 99 | 0.0 | 6.4 | 0.00 | 0.00 | 0.00 | 74 | |
| 20260505160613 | 15 | 306 | 1.6 | 6.4 | 0.00 | 0.00 | 0.00 | 73 | |
| 20260505160410 | 15 | 277 | 0.0 | 6.4 | 0.00 | 0.00 | 0.00 | 73 | |
| 20260505160209 | 15 | 281 | 0.0 | 6.4 | 0.00 | 0.00 | 0.00 | 72 | |
| 20260505153139 | 14 | 188 | 1.6 | 3.2 | 0.00 | 0.00 | 0.00 | 76 | |
| 20260505152938 | 14 | 151 | 1.6 | 3.2 | 0.00 | 0.00 | 0.00 | 76 | |
| 20260505152736 | 14 | 113 | 0.0 | 3.2 | 0.00 | 0.00 | 0.00 | 78 | |
| 20260505152534 | 14 | 149 | 1.6 | 3.2 | 0.00 | 0.00 | 0.00 | 79 | |
| 20260505152332 | 13 | 143 | 0.0 | 3.2 | 0.00 | 0.00 | 0.00 | 80 | |
| 20260505152130 | 13 | 132 | 1.6 | 4.8 | 0.00 | 0.00 | 0.00 | 81 | |
| 20260505151929 | 13 | 81 | 0.0 | 4.8 | 0.00 | 0.00 | 0.00 | 80 | |
| 20260505151727 | 13 | 85 | 1.6 | 0.0 | 0.00 | 0.00 | 0.00 | 80 | |
| 20260505151323 | 13 | 102 | 0.0 | 0.0 | 0.00 | 0.00 | 0.00 | 81 | |
| 20260505150919 | 13 | 102 | 0.0 | 1.6 | 0.00 | 0.00 | 0.00 | 81 | |
| 20260505150717 | 13 | 102 | 0.0 | 4.8 | 0.00 | 0.00 | 0.00 | 80 | |
| 20260505150515 | 13 | 102 | 0.0 | 4.8 | 0.00 | 0.00 | 0.00 | 80 | |
| 20260505150311 | 13 | 115 | 1.6 | 3.2 | 0.00 | 0.00 | 0.00 | 79 | |
| 20260505150111 | 13 | 42 | 0.0 | 3.2 | 0.00 | 0.00 | 0.00 | 79 | |
| 20260505140620 | 11 | 118 | 1.6 | 8.0 | 0.00 | 0.00 | 0.00 | 87 | |
| 20260505140418 | 11 | 118 | 0.0 | 8.0 | 0.00 | 0.00 | 0.00 | 87 | |
| 20260505140216 | 11 | 125 | 3.2 | 6.4 | 0.00 | 0.00 | 0.00 | 87 |